Погода в Саскылахе

Погода в Саскылахе : погода сейчас, прогноз погоды и архив. Всё, что Вы хотите узнать о погоде в Саскылахе!

Хотите узнать прогноз погоды в Саскылахе? Тогда Вам сюда: Погода в Саскылахе

Поиск расширенной информации на нашем сайте:

Другие новости

Новости СМИ2

Главная страница сайта

Новости сайта

03.07.2017

Напоминаем, что на нашем специализированном сайте Метеоцентр.Азия вы можете получить высокодетализированные автоматические прогнозы погоды по пунктам России, СНГ и мира в авиационном формате (включающие направление и скорость ветра, видимость, явления погоды, количество и форму облачности, нижнюю и верхнюю границу облачности).

Рекомендуем: разместить услугу

Погода в Саскылахе - сегодня

Время (UTC), дата Ветер
(°,м/с) 
Видим.   Явления Облачность Т
(°С)
Тd
(°С)
f(%) Тe
(°С)
Pmin
(гПа)
dP
(гПа)
Po
(мм)
O2
(г/м3)
Тmin Tmax R s Состояние
почвы
03 17.02.18 тихо ()   н/о    н/о 
-37 -40.9 67 -37               
06 17.02.18 тихо ()   20000 м    ясно 
-35.1 -39 68 -35  1024.2  -0.2  766  356           
09 17.02.18 тихо ()   20000 м    ясно 
-36.2 -40 68 -36  1024.6  0.4  766  358           
12 17.02.18 тихо ()   20000 м    ясно 
-36.9 -39.8 74 -37  1024.6  766  359    -33.5       
15 17.02.18 тихо ()   20000 м    ясно 
-38.9 -43.2 64 -39  1025  0.3  767  362           
18 17.02.18 тихо ()   20000 м    ясно 
-39.7 -44 64 -40  1025  767  364           
21 17.02.18 тихо ()   20000 м    ясно 
-40.1 -44.5 63 -40  1025.6  0.6  767  364           
00 18.02.18 тихо ()   20000 м    ясно 
-41.5 -45.6 64 -42  1026.2  0.6  768  367  -41.5      33  неравномерный
мокрый или
старый снег
100% 
03 18.02.18 тихо ()   20000 м    ясно 
-39.1 -43.4 63 -39  1026.2  768  363           
06 18.02.18 тихо ()   20000 м    ясно 
-36.9 -41.1 65 -37  1026.5  0.3  768  360           
09 18.02.18 тихо ()   20000 м    ясно 
-38.4 -42.6 65 -38  1027.4  0.9  768  362           
12 18.02.18 тихо ()   20000 м    ясно 
-40.5 -44.9 62 -41  1027.4  768  366    -38.5       
15 18.02.18 330 (СЗ) 20000 м    ясно 
-40.7 -45 63 -45  1027.4  768  366           
18 18.02.18 330 (СЗ) н/о    н/о 
-36.5 -40.3 68 -45               
21 18.02.18 330 (СЗ) 20000 м    ясно 
-35.7 -39.5 68 -42  1026.6  -0.3  768  358           
00 19.02.18 320 (СЗ) 4000 м  слаб. снег  10/10 180 м 
[Ns]
-32.9 -36.4 71 -39  1025.9  -0.7  767  354  -40.8    0.0  33  неравномерный
мокрый или
старый снег
100% 
15 19.02.18 320 (СЗ) 20000 м    10/10 450 м 
[Sc]
-27 -29.8 77 -36  1021.3  -1  764  344           
18 19.02.18 330 (СЗ) 20000 м    10/10 450 м 
[Sc]
-25.9 -28.5 79 -32  1021.3  764  342           
21 19.02.18 320 (СЗ) 20000 м    10/10 420 м 
[Sc]
-24.8 -27.3 80 -30  1019.1  -2.2  762  340           
00 20.02.18 330 (СЗ) 20000 м    ясно 
-26.9 -29.6 78 -33  1018.4  -0.7  762  342  -27.3      33  неравномерный
мокрый или
старый снег
100% 
03 20.02.18 320 (СЗ) 20000 м    10/0 средняя 
[Ac und]
-25.4 -28 79 -33  1017.1  -1.3  761  340           
06 20.02.18 310 (СЗ) 4000 м  слаб. снег  10/0 средняя 
[As op]
-24.2 -26.7 80 -29  1015.6  -1.5  760  338           
09 20.02.18 280 (З) 4000 м  слаб. снег  10/0 средняя 
[As op]
-22.4 -24.8 81 -29  1014.4  -1.2  759  335           
12 20.02.18 260 (З) 11-11{16}  4000 м  сильная метель{снег}  10/0 средняя 
[As op]
-22.4 -24.8 81 -33  1010.8  -3.6  756  334    -22.4  0.3     
00 21.02.18 320 (СЗ) 8{10}  1000 м  метель{снег}  10/10 400 м 
[Ns]
-15.6 -17.1 88 -23  1005.7  -0.3  752  323  -22.5    0.9  35  неравномерный
сухой снег
100% 
Время (UTC), дата Ветер
(°,м/с) 
Видим.   Явления Облачность Т
(°С)
Тd
(°С)
f(%) Тe
(°С)
Pmin
(гПа)
dP
(гПа)
Po
(мм)
O2
(г/м3)
Тmin Tmax R s Состояние
почвы

Для получения пояснительной информации подведите курсор к названию столбца.

ПОГОДА в Саскылахе - архив

Всё, что Вы хотите узнать о погоде в Саскылахе - удобно и подробно!

Выберите нужную дату (начиная с 1 января 2015* года) и нажмите кнопку "Найти".
Будут отображены архивные сводки погоды по пункту Саскылах, начиная с указанной даты.


Отображать данные в формате CSV (для использования в таблицах Excel)


Внимание! Наш архив погоды предназначен исключительно для личного некоммерческого использования в познавательных целях. Если Вам необходимы официальные справки о состоянии погоды (для производственных, юридических, коммерческих и т.п. целей), обращайтесь в органы Росгидромета.

*Примечание: данная дата относится к архиву по метеостанциям СССР (Россия, СНГ, Балтия).
Архив по метеостанциям Зарубежной Европы и Азии (кроме Китая) хранится 10 дней, по другим регионам земного шара (Китай, Африка, Америка, Австралия, Океания) - 1 день.

Саскылах - район местоположения метеостанции


Название, широта, долгота, высота метеостанции:
Саскылах 72°ш. 114.1°д. 18 м над ур. моря [Российская Федерация]

Дополнительная информация

В oтличие oт бoльшинства пoгoдных сайтoв мы публикуем пoдрoбную метеoинфoрмацию в детальнoм прoфессиoнальнoм фoрмате.

Характеристики температуры и влажнoсти вoздуха измеряются на высoте 2 м в тени вдали oт зданий и деревьев.
Скoрoсть ветра измеряется на высoте 10 м (на урoвне рoста челoвека скoрoсть ветра ниже в 1.5-2 раза). Если метеoстанция нахoдится в гoрoде или в лесу, тo скoрoсть ветра занижена на 2-4 м/с пo сравнению с oткрытым местoм. Скoрoсть ветра над акватoриями крупных рек и oзёр, а также на вершинах хoлмoв на 2-5 м/с выше, чем в oбычных услoвиях.
Атмoсфернoе давление в разных тoчках местнoсти мoжет значительнo oтличаться oт давления на метеoстанции, в зависимoсти oт услoвий рельефа (при пoдъёме на 10 м давление пoнижается примернo на 1 мм рт.ст.).